Location: Clover
(42.5131°N, 114.6874°W)
Time: 14:45:05
(UTC+00:00)

Transit 2A Rocket - Pass Details

Date: 16 November 2024
Orbit: 585 x 904 km, 66.7° (Epoch: 02 December)

Event Time Altitude Azimuth Distance (km) Brightness Sun altitude
Rises 01:16:11 0° 325° (NW) 3,228 8.5 -11.3°
Reaches altitude 10° 01:18:43 10° 322° (NW) 2,245 7.7 -11.7°
Maximum altitude 01:23:41 56° 245° (WSW) 817 5.5 -12.6°
Drops below altitude 10° 01:28:11 10° 167° (SSE) 2,038 7.2 -13.4°
Sets 01:30:24 0° 163° (SSE) 2,904 8.0 -13.8°
